Regional Weather Roundup
Issued by NWS

Home | Current Version | Previous Version | Text Only | Print | Product List | Glossary Off
Versions: 1 2 3 4 5 6 7 8 9 10 11 12 13 14 15 16 17 18 19 20 21 22 23 24 25 26 27 28 29 30 31 32 33 34 35 36 37 38 39 40 41 42 43 44 45 46 47 48 49 50

000
ASUS43 KBIS 242310
RWRND

NORTH DAKOTA REGIONAL WEATHER ROUNDUP
NATIONAL WEATHER SERVICE BISMARCK ND
500 PM CST SAT FEB 24 2018

NOTE: "FAIR" INDICATES FEW OR NO CLOUDS BELOW 12,000 FEET WITH NO
SIGNIFICANT WEATHER AND/OR OBSTRUCTIONS TO VISIBILITY.


NDZ001>003-009>011-017-250000-
NORTHWEST NORTH DAKOTA

CITY           SKY/WX    TMP DP  RH WIND       PRES   REMARKS
WILLISTON      MOSUNNY   20  12  71 SW7       29.60F WCI  11
MINOT          PTSUNNY   22  13  68 SW9       29.60F WCI  12
MINOT AFB      MOSUNNY   21  13  70 SW8         N/A  WCI  12
$$

NDZ018>021-031>035-040>046-250000-
SOUTHWEST NORTH DAKOTA

CITY           SKY/WX    TMP DP  RH WIND       PRES   REMARKS
BISMARCK       SUNNY     22  14  71 SW7       29.67F WCI  13
DICKINSON      SUNNY     20  11  68 W8        29.60F WCI  10
GARRISON         N/A     20  13  74 SW6       29.61F WCI  12
HETTINGER ARPT SUNNY     19  10  68 W15       29.65F WCI   5
$$

NDZ004>008-012>016-024-026-027-054-250000-
NORTHEAST NORTH DAKOTA

CITY           SKY/WX    TMP DP  RH WIND       PRES   REMARKS
GRAND FORKS    LGT SNOW  16  13  88 S8        29.77F VSB 3/4 WCI   5
GRND FRKS AFB  LGT SNOW  15  11  85 S8        29.77F FOG     WCI   4
DEVILS LAKE    LGT SNOW  21  18  88 S13       29.67F FOG     WCI   9
$$

NDZ022-023-025-028>030-036>039-047>053-250000-
SOUTHEAST NORTH DAKOTA

CITY           SKY/WX    TMP DP  RH WIND       PRES   REMARKS
FARGO          SNOW      16  14  92 NE8       29.73F VSB 1/2 WCI   5
JAMESTOWN      LGT SNOW  15  12  88 S6        29.67F FOG     WCI   6
$$





USA.gov is the U.S. government's official web portal to all federal, state and local government web resources and services.